Location: Newark
(47.5833°N, 8.1500°E)
Time: 01:45:48
(UTC+00:00)

Transit 2A - Pass Details

Date: 04 November 2020
Orbit: 594 x 964 km, 66.7° (Epoch: 25 November)

Event Time Altitude Azimuth Distance (km) Brightness Sun altitude
Rises 21:03:09 0° 159° (SSE) 3,625 - -48.7°
Reaches altitude 10° 21:06:43 10° 139° (SE) 2,695 - -49.1°
Maximum altitude 21:10:25 16° 103° (ESE) 2,268 - -49.6°
Drops below altitude 10° 21:14:05 10° 67° (ENE) 2,676 - -50.1°
Sets 21:17:35 0° 48° (NE) 3,586 - -50.5°
